Skip Page Navigation
NASA JPL Caltech
NASA Logo - Jet Propulsion Laboratory + View the NASA Portal
+ Near-Earth Object (NEO) Program
Search JPL
JPL Home Earth Solar System Stars & Galaxies Technology
JPL Solar System Dynamics
BODIES ORBITS EPHEMERIDES TOOLS PHYSICAL DATA DISCOVERY FAQ SITE MAP
JPL Small-Body Database Browser
Search: [ help ]  
14189 Sevre (1998 XB14)
Classification: Main-belt Asteroid          SPK-ID: 2014189
Ephemeris | Orbit Diagram | Orbital Elements | Physical Parameters | Discovery Circumstances ]

[ show orbit diagram ]
Orbital Elements at Epoch 2457000.5 (2014-Dec-09.0) TDB
Reference: JPL 11 (heliocentric ecliptic J2000)
 Element Value Uncertainty (1-sigma)   Units 
e .1982389999790032 7.4519e-08  
a 2.723972675734995 2.4114e-08 AU
q 2.18397505652716 2.0662e-07 AU
i 3.142304136741763 7.7567e-06 deg
node 191.758715696853 0.00010237 deg
peri 158.3414758869626 0.00010341 deg
M 256.4277106137598 1.5706e-05 deg
tp 2457472.936694765135
(2016-Mar-25.43669476)
7.5021e-05 JED
period 1642.111139217933
4.50
2.1805e-05
5.97e-08
d
yr
n .2192299847447917 2.9111e-09 deg/d
Q 3.26397029494283 2.8894e-08 AU
  Orbit Determination Parameters
   # obs. used (total)      810  
   data-arc span      12264 days (33.58 yr)  
   first obs. used      1980-11-29  
   last obs. used      2014-06-28  
   planetary ephem.      DE431  
   SB-pert. ephem.      SB431-BIG16  
   condition code      0  
   fit RMS      .55254  
   data source      ORB  
   producer      Otto Matic  
   solution date      2015-Jan-08 02:22:46  

Additional Information
 Earth MOID = 1.17872 AU 
 T_jup = 3.326 
[ show covariance matrix ]

Ephemeris | Orbit Diagram | Orbital Elements | Physical Parameters | Discovery Circumstances ]

Physical Parameter Table
Parameter Symbol Value Units Sigma Reference Notes
absolute magnitude H 14.2 mag n/a MPO259444  

14189 Sèvre           Discovered 1998 Dec. 15 by the OCA-DLR Asteroid Survey at Caussols.
François Sèvre (b. 1948) started his career as an infrared astronomy engineer at Meudon Observatory. He has participated in a large number of observing runs, most notably at the Pic du Midi Observatory, where his knowledge of the mountain and his human qualities have always been appreciated.
NOTE: some special characters may not display properly (any characters within {} are an attempt to place the proper accent above a character)
Reference: 20000726/MPCPages.arcLast Updated: 2013-03-29

Alternate Designations
 1998 XB14 = 1980 WL4 = 1993 QQ1 
Ephemeris | Orbit Diagram | Orbital Elements | Physical Parameters | Discovery Circumstances ]
ABOUT SSD CREDITS/AWARDS PRIVACY/COPYRIGHT GLOSSARY LINKS
FirstGov 2015-Jan-28 09:14 UT
(server date/time)  
NASA Home Page
Site Manager:   Donald K. Yeomans
Webmaster  Alan B. Chamberlin